Tracking 20241 objects as of 25-Jan-2020
HD Live streaming from Space Station
objects crossing your sky now

COSMOS 2251 DEB

Track COSMOS 2251 DEB now!
10-day predictions


NORAD ID: 33784
Int'l Code: 1993-036Z
Perigee: 642.5 km
Apogee: 720.9 km
Inclination: 74.2 °
Period: 98.2 minutes
Semi major axis: 7052 km
RCS: 0.1566 m2 (medium)
Launch date: June 16, 1993
Source: Commonwealth of Independent States (former USSR) (CIS)
Launch site: PLESETSK MISSILE AND SPACE COMPLEX (PKMTR)

Note: This is SATELLITE DEBRIS
aabbcc
Your satellite tracking list
Your tracking list is empty




NASA's NSSDC Master Catalog

Two Line Element Set (TLE):
1 33784U 93036Z   20024.52053892 +.00000524 +00000-0 +99557-4 0  9998
2 33784 074.2005 043.3479 0055555 174.1965 340.7050 14.65788478582735
Source of the keplerian elements: AFSPC